Hourly Weather Roundup
Issued by NWS Central Illinois

Home | Current Version | Previous Version | Text Only | Print | Product List | Glossary On
Versions: 1 2 3 4 5 6 7 8 9 10 11 12 13 14 15 16 17 18 19 20 21 22 23 24 25 26 27 28 29 30 31 32 33 34 35 36 37 38 39 40 41 42 43 44 45 46 47 48 49 50
000
NZUS43 KILX 201410
HWRILX

AREA WEATHER ROUNDUP
NATIONAL WEATHER SERVICE, LINCOLN IL
900 AM CDT SUN APR 20 2014


CITY           SKY/WX    TMP DP  RH WIND       PRES   REMARKS
BLOOMINGTON    MOSUNNY   58  38  47 S16       30.21F
CHAMPAIGN      MOSUNNY   59  39  47 SE12      30.23F
DANVILLE       MOSUNNY   55  38  51 SE7       30.22F
DECATUR        MOSUNNY   63  41  44 S13       30.22F
FLORA          NOT AVBL
GALESBURG      SUNNY     63  43  48 S14       30.16S
JACKSONVILLE   MOSUNNY   65  39  38 S9        30.19F
LACON          SUNNY     61  40  46 S10       30.18S
LAWRENCEVILLE  MOSUNNY   60  39  45 SE6       30.25S
LITCHFIELD     SUNNY     60  42  52 CALM      30.21S
$$


CITY           SKY/WX    TMP DP  RH WIND       PRES   REMARKS
LINCOLN        MOSUNNY   62  40  45 S10       30.20F
MACOMB         MOSUNNY   62  42  48 S12       30.19R
MATTOON        MOSUNNY   59  40  49 S10       30.23S
MT CARMEL AP   MOSUNNY   61  41  48 SE7       30.24F
OLNEY-NOBLE AP MOSUNNY   57  43  58 CALM      30.25S
PARIS          PTSUNNY   58  42  54 SE6       30.25F
PEORIA         SUNNY     62  40  44 S14       30.19F
PONTIAC        SUNNY     63  39  42 S15       30.21F
RANTOUL        MOSUNNY   60  38  45 CALM      30.24S
ROBINSON       MOSUNNY   61  45  56 SE5       30.26S
SPRINGFIELD    MOSUNNY   63  40  42 S15       30.20F
TAYLORVILLE    MOSUNNY   61  41  48 SE14      30.21F
$$

...REGIONAL REPORTS...


CITY           SKY/WX    TMP DP  RH WIND       PRES   REMARKS
CHICAGO O`HARE PTSUNNY   57  31  37 S12       30.21F
KANKAKEE       MOSUNNY   51  37  58 SE8       30.24F
MOLINE         MOSUNNY   65  39  38 S13       30.14R
MOUNT VERNON   MOSUNNY   61  39  44 SE5       30.24S
PITTSFIELD     MOSUNNY   66  43  43 S8        30.18S
QUINCY         PTSUNNY   65  43  44 S12       30.16S
ROCKFORD       PTSUNNY   56  38  50 S12       30.19F
$$


CITY           SKY/WX    TMP DP  RH WIND       PRES   REMARKS
BURLINGTON     SUNNY     65  44  46 SW13      30.14S
CEDAR RAPIDS   PTSUNNY   61  43  51 S14       30.10S
DES MOINES     MOSUNNY   66  47  50 S9        30.05S
KIRKSVILLE     MOSUNNY   63  45  51 S12       30.14R
OTTUMWA        SUNNY     63  43  48 S15       30.09F
ST LOUIS       PTSUNNY   69  42  37 S7        30.20S
$$


CITY           SKY/WX    TMP DP  RH WIND       PRES   REMARKS
TERRE HAUTE    MOSUNNY   57  38  48 SE6       30.25S
EVANSVILLE     SUNNY     61  42  49 CALM      30.24F
INDIANAPOLIS   PTSUNNY   55  35  47 SE7       30.26F
LAFAYETTE      MOSUNNY   55  36  48 VRB3      30.25F
MADISON        PTSUNNY   57  40  52 S12       30.14F
MILWAUKEE      CLOUDY    54  34  46 S10       30.20F
$$





USA.gov is the U.S. government's official web portal to all federal, state and local government web resources and services.